Weather History for Whiteman AFB, MO

Change the Weather History Date:

Thursday, July 11, 2013

  Actual Average Record
Temperature  
Mean Temperature 76 °F -  
Max Temperature 88 °F 87 °F 98 °F (2011)
Min Temperature 63 °F 68 °F 59 °F (1996)
Cooling Degree Days 10    
Growing Degree Days 26 (Base 50)    
Moisture  
Dew Point 60 °F    
Average Humidity 60    
Maximum Humidity 94    
Minimum Humidity 32    
Precipitation  
Precipitation 0.00 in - - ()
Sea Level Pressure  
Sea Level Pressure 30.04 in    
Wind  
Wind Speed 6 mph (ENE)    
Max Wind Speed 12 mph    
Max Gust Speed 16 mph    
Visibility 10 miles    
Events      
Averages and records for this station are not official NWS values.
T = Trace of Precipitation, MM = Missing Value Source: NWS Daily Summary

Daily Weather History Graph

Daily Weather History Graph

Search for Another Location

Airport:

Trip Planner

Search our weather history database for the weather conditions in past years. The results will help you decide how hot, cold, wet, or windy it might be!

Date:

Astronomy

Jul. 11, 2013 Rise Set
Actual Time 5:59 AM CDT 8:40 PM CDT
Civil Twilight 5:27 AM CDT 9:11 PM CDT
Nautical Twilight 4:48 AM CDT 9:50 PM CDT
Astronomical Twilight 4:04 AM CDT 10:34 PM CDT
Moon 9:15 AM CDT (7/11) 10:23 PM CDT (7/11)
Length of Visible Light 15h 43m
Length of Day
14h 41m
Waxing Crescent, 11% of the Moon is Illuminated
Jul 11
Waxing Crescent
Jul 15
First Quarter
Jul 22
Full
Jul 29
Last Quarter
Aug 6
New

Hourly Weather History & Observations

Time (CDT) Temp. Heat Index Dew Point Humidity Pressure Visibility Wind Dir Wind Speed Gust Speed Precip Events Conditions
12:58 AM 70.2 °F - 64.2 °F 81% 30.03 in 10.0 mi NE 3.5 mph - N/A   Partly Cloudy
1:58 AM 69.6 °F - 63.7 °F 81% 30.02 in 10.0 mi ENE 6.9 mph - N/A   Clear
2:58 AM 68.9 °F - 62.6 °F 80% 30.03 in 10.0 mi ENE 3.5 mph - N/A   Clear
3:58 AM 67.5 °F - 62.2 °F 83% 30.04 in 10.0 mi ENE 3.5 mph - N/A   Clear
4:58 AM 65.8 °F - 61.9 °F 87% 30.05 in 10.0 mi North 2.3 mph - N/A   Clear
5:58 AM 63.3 °F - 61.5 °F 94% 30.06 in 10.0 mi ENE 4.6 mph - N/A   Clear
6:58 AM 66.4 °F - 62.2 °F 86% 30.07 in 10.0 mi East 4.6 mph - N/A   Clear
7:58 AM 71.8 °F - 62.1 °F 71% 30.08 in 10.0 mi ENE 9.2 mph - N/A   Clear
8:58 AM 75.0 °F - 60.8 °F 61% 30.08 in 10.0 mi East 9.2 mph - N/A   Clear
9:58 AM 78.1 °F - 61.3 °F 56% 30.07 in 10.0 mi ENE 11.5 mph - N/A   Clear
10:58 AM 80.1 °F 81.1 °F 61.5 °F 53% 30.07 in 10.0 mi ENE 9.2 mph - N/A   Clear
11:58 AM 82.8 °F 83.0 °F 60.1 °F 46% 30.07 in 10.0 mi Variable 6.9 mph - N/A   Clear
12:58 PM 83.8 °F 83.1 °F 57.0 °F 40% 30.07 in 10.0 mi East 8.1 mph - N/A   Clear
1:58 PM 86.2 °F 85.0 °F 56.8 °F 37% 30.07 in 10.0 mi Variable 5.8 mph - N/A   Clear
2:58 PM 87.3 °F 85.7 °F 55.9 °F 34% 30.04 in 10.0 mi East 11.5 mph - N/A   Clear
3:58 PM 88.0 °F 86.1 °F 54.9 °F 32% 30.03 in 10.0 mi ENE 11.5 mph 16.1 mph N/A   Clear
4:58 PM 87.8 °F 86.3 °F 56.3 °F 34% 30.02 in 10.0 mi Variable 6.9 mph - N/A   Clear
5:58 PM 86.5 °F 85.6 °F 57.9 °F 38% 30.00 in 10.0 mi Variable 6.9 mph - N/A   Clear
6:58 PM 85.5 °F 84.6 °F 58.1 °F 39% 29.99 in 10.0 mi East 8.1 mph - N/A   Clear
7:58 PM 82.4 °F 82.5 °F 59.2 °F 45% 30.00 in 10.0 mi East 5.8 mph - N/A   Clear
8:58 PM 77.5 °F - 59.5 °F 54% 30.00 in 10.0 mi East 5.8 mph - N/A   Clear
9:58 PM 74.7 °F - 59.7 °F 60% 30.02 in 10.0 mi ESE 3.5 mph - N/A   Clear
10:58 PM 71.8 °F - 60.8 °F 68% 30.03 in 10.0 mi ESE 5.8 mph - N/A   Clear
11:58 PM 70.3 °F - 62.2 °F 75% 30.03 in 10.0 mi ESE 4.6 mph - N/A   Clear